Regional Weather Roundup
Issued by NWS

Home | Current Version | Previous Version | Graphics & Text | Print | Product List | Glossary On
Versions: 1 2 3 4 5 6 7 8 9 10 11 12 13 14 15 16 17 18 19 20 21 22 23 24 25 26 27 28 29 30 31 32 33 34 35 36 37 38 39 40 41 42 43 44 45 46 47 48 49 50
000
ASUS43 KLMK 260310
RWRKY
KENTUCKY REGIONAL WEATHER ROUNDUP
NATIONAL WEATHER SERVICE LOUISVILLE KY
1100 PM EDT SUN JUN 25 2017

NOTE "FAIR" INDICATES FEW OR NO CLOUDS BELOW 12,000 FEET
WITH NO SIGNIFICANT WEATHER AND/OR OBSTRUCTIONS TO VISIBILITY.

KYZ001>023-026-027-061>063-070>075-260400-
WESTERN AND SOUTH CENTRAL KENTUCKY

CITY           SKY/WX    TMP DP  RH WIND       PRES   REMARKS
PADUCAH        CLEAR     67  59  75 CALM      30.15R
HENDERSON      PTCLDY    62  59  90 CALM      30.16R
OWENSBORO      CLEAR     68  56  65 CALM      30.15R
HOPKINSVILLE   CLEAR     70  57  63 SW3       30.16S
BOWLING GREEN  CLEAR     68  57  68 CALM      30.17R
GLASGOW        CLEAR     63  58  85 CALM      30.17S
$$

KYZ024-025-028>034-038-045-046-053-260400-
NORTH CENTRAL KENTUCKY

CITY           SKY/WX    TMP DP  RH WIND       PRES   REMARKS
LOUISVILLE/SDF PTCLDY    70  48  45 W6        30.15R
LOUISVILLE/LOU CLEAR     70  50  49 CALM      30.15R
FORT KNOX      CLEAR     61  51  70 CALM      30.14R
$$

KYZ035>037-039>044-047>052-055>060-089>105-260400-
NORTHEAST KENTUCKY

CITY           SKY/WX    TMP DP  RH WIND       PRES   REMARKS
LEXINGTON      MOCLDY    67  45  45 W5        30.16R
COVINGTON      PTCLDY    64  49  57 W5        30.13R
FRANKFORT      CLEAR     62  50  64 CALM      30.14R
$$

KYZ054-064>069-076>088-106>120-260400-
SOUTHEAST KENTUCKY

CITY           SKY/WX    TMP DP  RH WIND       PRES   REMARKS
JACKSON        CLEAR     65  51  60 CALM      30.17R
LONDON         PTCLDY    64  54  69 CALM      30.18S
SOMERSET       PTCLDY    61  54  77 CALM      30.19R
MIDDLESBORO    CLEAR     61  52  71 CALM      30.21S
MONTICELLO     PTCLDY    60  57  89 CALM      30.21R
$$





USA.gov is the U.S. government's official web portal to all federal, state and local government web resources and services.